| time (UTC) | temp C | wind direction | speed KPH | gust KPH | rain 1hr cm | rain 24hr cm | rain mn cm | humidity % | barometer mb |
| 20260504044629 | 10 | 300 | 0.0 | 1.6 | 0.00 | 0.00 | 0.00 | 51 | 1014.8 |
| 20260504043027 | 10 | 317 | 0.0 | 3.2 | 0.00 | 0.00 | 0.00 | 51 | 1014.7 |
| 20260504041528 | 10 | 271 | 0.0 | 4.8 | 0.00 | 0.00 | 0.00 | 50 | 1014.8 |
| 20260504040024 | 10 | 288 | 0.0 | 3.2 | 0.00 | 0.00 | 0.00 | 50 | 1014.6 |
| 20260504034520 | 10 | 315 | 0.0 | 4.8 | 0.00 | 0.00 | 0.00 | 50 | 1014.5 |
| 20260504033022 | 10 | 284 | 0.0 | 1.6 | 0.00 | 0.00 | 0.00 | 50 | 1014.5 |
| 20260504031520 | 10 | 305 | 0.0 | 1.6 | 0.00 | 0.00 | 0.00 | 49 | 1014.4 |
| 20260504030030 | 10 | 289 | 0.0 | 1.6 | 0.00 | 0.00 | 0.00 | 50 | 1014.3 |
| 20260504024519 | 10 | 255 | 0.0 | 1.6 | 0.00 | 0.00 | 0.00 | 49 | 1014.3 |
| 20260504023018 | 11 | 332 | 1.6 | 4.8 | 0.00 | 0.00 | 0.00 | 48 | 1014.1 |
| 20260504021518 | 10 | 320 | 0.0 | 3.2 | 0.00 | 0.00 | 0.00 | 48 | 1014.3 |
| 20260504020020 | 10 | 269 | 0.0 | 1.6 | 0.00 | 0.00 | 0.00 | 49 | 1014.3 |
| 20260504014517 | 10 | 304 | 0.0 | 0.0 | 0.00 | 0.00 | 0.00 | 49 | 1014.2 |
| 20260504013016 | 10 | 304 | 0.0 | 0.0 | 0.00 | 0.00 | 0.00 | 49 | 1014.1 |
| 20260504011518 | 10 | 297 | 0.0 | 1.6 | 0.00 | 0.00 | 0.00 | 51 | 1013.9 |
| 20260504010015 | 10 | 297 | 0.0 | 1.6 | 0.00 | 0.00 | 0.00 | 50 | 1013.8 |
| 20260504004521 | 11 | 285 | 0.0 | 0.0 | 0.00 | 0.00 | 0.00 | 49 | 1013.9 |
| 20260504003013 | 11 | 285 | 0.0 | 1.6 | 0.00 | 0.00 | 0.00 | 47 | 1013.7 |
| 20260504001514 | 12 | 285 | 0.0 | 1.6 | 0.00 | 0.00 | 0.00 | 45 | 1013.5 |
| 20260504000013 | 12 | 285 | 0.0 | 1.6 | 0.00 | 0.00 | 0.00 | 44 | 1013.4 |
| 20260503234525 | 13 | 251 | 0.0 | 6.4 | 0.00 | 0.00 | 0.00 | 41 | 1013.2 |
| 20260503233011 | 13 | 312 | 0.0 | 11.3 | 0.00 | 0.00 | 0.00 | 41 | 1013.0 |
| 20260503231511 | 14 | 257 | 3.2 | 11.3 | 0.00 | 0.00 | 0.00 | 39 | 1013.0 |
| 20260503230010 | 15 | 287 | 3.2 | 8.0 | 0.00 | 0.00 | 0.00 | 39 | 1013.0 |
| 20260503224513 | 14 | 266 | 4.8 | 19.3 | 0.00 | 0.00 | 0.00 | 37 | 1013.1 |
| 20260503223010 | 14 | 271 | 6.4 | 19.3 | 0.00 | 0.00 | 0.00 | 38 | 1012.9 |
| 20260503221509 | 14 | 335 | 8.0 | 20.9 | 0.00 | 0.00 | 0.00 | 37 | 1013.0 |
| 20260503220024 | 15 | 246 | 6.4 | 12.9 | 0.00 | 0.00 | 0.00 | 37 | 1013.0 |
| 20260503214508 | 15 | 275 | 8.0 | 17.7 | 0.00 | 0.00 | 0.00 | 36 | 1013.1 |
| 20260503213009 | 15 | 271 | 4.8 | 11.3 | 0.00 | 0.00 | 0.00 | 38 | 1013.0 |
| 20260503211506 | 14 | 341 | 6.4 | 16.1 | 0.00 | 0.00 | 0.00 | 37 | 1012.9 |
| 20260503210005 | 14 | 305 | 6.4 | 19.3 | 0.00 | 0.00 | 0.00 | 38 | 1013.0 |
| 20260503204504 | 13 | 8 | 4.8 | 16.1 | 0.00 | 0.00 | 0.00 | 38 | 1012.9 |
| 20260503203005 | 13 | 302 | 4.8 | 27.4 | 0.00 | 0.00 | 0.00 | 39 | 1013.0 |
| 20260503201502 | 14 | 285 | 9.7 | 24.1 | 0.00 | 0.00 | 0.00 | 38 | 1012.9 |
| 20260503200105 | 14 | 258 | 6.4 | 20.9 | 0.00 | 0.00 | 0.00 | 38 | 1013.1 |
| 20260503194558 | 13 | 279 | 8.0 | 16.1 | 0.00 | 0.00 | 0.00 | 38 | 1013.5 |
| 20260503193109 | 13 | 1 | 6.4 | 25.7 | 0.00 | 0.00 | 0.00 | 37 | 1013.5 |
| 20260503191603 | 13 | 37 | 3.2 | 12.9 | 0.00 | 0.00 | 0.00 | 42 | 1013.8 |
| 20260503190057 | 13 | 299 | 4.8 | 19.3 | 0.00 | 0.00 | 0.00 | 41 | 1013.9 |
| 20260503184606 | 13 | 271 | 6.4 | 22.5 | 0.00 | 0.00 | 0.00 | 39 | 1014.1 |
| 20260503183107 | 13 | 333 | 9.7 | 24.1 | 0.00 | 0.00 | 0.00 | 39 | 1014.3 |
| 20260503181606 | 12 | 266 | 6.4 | 17.7 | 0.00 | 0.00 | 0.00 | 41 | 1014.3 |
| 20260503180048 | 12 | 241 | 8.0 | 17.7 | 0.00 | 0.00 | 0.00 | 43 | 1014.4 |
| 20260503174546 | 11 | 224 | 4.8 | 17.7 | 0.00 | 0.00 | 0.00 | 43 | 1014.5 |
| 20260503173056 | 11 | 356 | 9.7 | 19.3 | 0.00 | 0.00 | 0.00 | 41 | 1014.6 |
| 20260503171544 | 11 | 294 | 8.0 | 25.7 | 0.00 | 0.00 | 0.00 | 45 | 1014.7 |
| 20260503081610 | 5 | 273 | 3.2 | 9.7 | 0.00 | 0.00 | 0.00 | 67 | 1012.9 |
| 20260503071541 | 5 | 299 | 1.6 | 8.0 | 0.00 | 0.00 | 0.00 | 72 | 1012.5 |